Skip Page Navigation
NASA JPL Caltech
NASA Logo - Jet Propulsion Laboratory + View the NASA Portal
+ Near-Earth Object (NEO) Project
Search JPL
JPL Home Earth Solar System Stars & Galaxies Technology
JPL Solar System Dynamics
BODIES ORBITS EPHEMERIDES TOOLS PHYSICAL DATA DISCOVERY FAQ SITE MAP
JPL Small-Body Database Browser
Search: [ help ]  
20813 Aakashshah (2000 SB274)
Classification: Main-belt Asteroid          SPK-ID: 2020813
Ephemeris | Orbit Diagram | Orbital Elements | Physical Parameters | Discovery Circumstances ]

[ show orbit diagram ]
Orbital Elements at Epoch 2455200.5 (2010-Jan-04.0) TDB
Reference: MPO70190 (heliocentric ecliptic J2000)
 Element Value Uncertainty (1-sigma)   Units 
e 0.1127347 n/a  
a 2.6749973 n/a AU
q 2.3734323 n/a AU
i 2.99098 n/a deg
node 196.57309 n/a deg
peri 307.96927 n/a deg
M 299.24007 n/a deg
tp 2455470.2107229
(2010-Sep-30.71072290)
n/a JED
period 1598.0245576
4.38
n/a
n/a
d
yr
n 0.22527814 n/a deg/d
Q 2.9765623 n/a AU
  Orbit Determination Parameters
   # obs. used (total)      277  
   first obs. used      1976-??-??  
   last obs. used      2004-10-10  
   # oppositions      7  
   planetary ephem.      DE403  
   quality code      1  
   fit RMS      0.61  
   data source      MPC:mpn  
   producer      MPC  

Additional Information
 T_jup = 3.368 

Ephemeris | Orbit Diagram | Orbital Elements | Physical Parameters | Discovery Circumstances ]

Physical Parameter Table
Parameter Symbol Value Units Sigma Reference Notes
absolute magnitude H 14.4 mag n/a PDS3 (MPO 7951)  

20813 Aakashshah           Discovered 2000 Sept. 28 by the Lincoln Laboratory Near-Earth Asteroid Research Team at Socorro.
Aakash Shah (b. 1988) was awarded second place in the 2004 Intel International Science and Engineering Fair for his environmental science project. He attends the Academy for Medical Science Technology, Hackensack, New Jersey, U.S.A.
NOTE: some special characters may not display properly (any characters within {} are an attempt to place the proper accent above a character)
Reference: 20041226/MPCPages.arcLast Updated: 2004-12-25

Alternate Designations
 2000 SB274 = 1976 GB7 = 1998 HV51 
Ephemeris | Orbit Diagram | Orbital Elements | Physical Parameters | Discovery Circumstances ]
ABOUT SSD CREDITS/AWARDS PRIVACY/COPYRIGHT GLOSSARY LINKS
FirstGov 2009-Nov-23 21:02 UT
(server date/time)  
NASA Home Page
Site Manager:   Donald K. Yeomans
Webmaster  Alan B. Chamberlin